TimeCDT,TemperatureF,Dew PointF,Humidity,Sea Level PressureIn,VisibilityMPH,Wind Direction,Wind SpeedMPH,Gust SpeedMPH,PrecipitationIn,Events,Conditions,WindDirDegrees,DateUTC
12:53 AM,35.1,33.1,92,29.87,10.0,Calm,Calm,-,N/A,,Clear,0,2012-10-03 05:53:00
1:53 AM,34.0,33.1,96,29.88,10.0,Calm,Calm,-,N/A,,Clear,0,2012-10-03 06:53:00
2:53 AM,34.0,32.0,92,29.87,10.0,Calm,Calm,-,N/A,,Clear,0,2012-10-03 07:53:00
3:53 AM,30.0,28.9,96,29.87,10.0,Calm,Calm,-,N/A,,Clear,0,2012-10-03 08:53:00
4:53 AM,30.0,28.9,96,29.87,4.0,Calm,Calm,-,N/A,,Clear,0,2012-10-03 09:53:00
5:53 AM,30.0,28.0,92,29.89,9.0,Calm,Calm,-,N/A,,Clear,0,2012-10-03 10:53:00
6:05 AM,28.4,26.6,93,29.88,1.8,NW,3.5,-,N/A,,Clear,320,2012-10-03 11:05:00
6:13 AM,28.4,26.6,93,29.88,4.0,NW,3.5,-,N/A,,Clear,320,2012-10-03 11:13:00
6:53 AM,30.0,28.0,92,29.91,10.0,Calm,Calm,-,N/A,,Clear,0,2012-10-03 11:53:00
7:53 AM,30.0,28.0,92,29.93,10.0,Calm,Calm,-,N/A,,Clear,0,2012-10-03 12:53:00
8:53 AM,39.0,36.0,89,29.94,10.0,Calm,Calm,-,N/A,,Clear,0,2012-10-03 13:53:00
9:53 AM,48.0,39.9,74,29.94,10.0,Calm,Calm,-,N/A,,Clear,0,2012-10-03 14:53:00
10:53 AM,55.9,39.9,55,29.94,10.0,Calm,Calm,-,N/A,,Clear,0,2012-10-03 15:53:00
11:53 AM,63.0,39.9,43,29.94,8.0,Calm,Calm,-,N/A,,Clear,0,2012-10-03 16:53:00
12:53 PM,66.9,39.9,37,29.91,5.0,Calm,Calm,-,N/A,,Haze,0,2012-10-03 17:53:00
1:53 PM,69.1,37.9,32,29.89,5.0,Calm,Calm,-,N/A,,Haze,0,2012-10-03 18:53:00
2:53 PM,72.0,39.0,30,29.88,6.0,SSE,3.5,-,N/A,,Haze,150,2012-10-03 19:53:00
3:53 PM,73.9,39.0,28,29.89,10.0,East,3.5,-,N/A,,Clear,100,2012-10-03 20:53:00
4:53 PM,73.9,39.0,28,29.89,10.0,Calm,Calm,-,N/A,,Clear,0,2012-10-03 21:53:00
5:53 PM,66.0,46.0,48,29.90,10.0,Calm,Calm,-,N/A,,Clear,0,2012-10-03 22:53:00
6:53 PM,61.0,45.0,56,29.91,10.0,Calm,Calm,-,N/A,,Clear,0,2012-10-03 23:53:00
7:53 PM,62.1,42.1,48,29.93,10.0,NNE,9.2,-,N/A,,Clear,20,2012-10-04 00:53:00
8:53 PM,61.0,42.1,50,29.92,10.0,NE,5.8,-,N/A,,Clear,50,2012-10-04 01:53:00
10:53 PM,55.0,43.0,64,29.93,10.0,NNW,8.1,-,N/A,,Partly Cloudy,330,2012-10-04 03:53:00
11:53 PM,55.0,42.1,62,29.90,10.0,NNE,3.5,-,N/A,,Clear,20,2012-10-04 04:53:00